This is the latest recevied weather packets stored in our database for station/object KO4DYK. If no packets are shown the sender has not sent any weather packets the latest 10 day(s).
| Time | Temp. | Humidity | Pressure | Rain* | Wind** | Luminosity | Snow |
|---|---|---|---|---|---|---|---|
| 1788185014 | 28.89° C | 81% | 1021.5 hPa | 0 mm | - | 298 W/m² | - |
| 1788184712 | 28.33° C | 83% | 1021.5 hPa | 0 mm | - | 228 W/m² | - |
| 1788184407 | 27.78° C | 84% | 1021.3 hPa | 0 mm | - | 249 W/m² | - |
| 1788184103 | 27.78° C | 86% | 1021.5 hPa | 0 mm | - | 233 W/m² | - |
| 1788183799 | 27.22° C | 89% | 1021.3 hPa | 0 mm | - | 229 W/m² | - |
| 1788183498 | 26.67° C | 90% | 1021.5 hPa | 0 mm | - | 182 W/m² | - |
| 1788183198 | 26.11° C | 92% | 1021.4 hPa | 0 mm | - | 166 W/m² | - |
| 1788182894 | 25.56° C | 94% | 1021.4 hPa | 0 mm | - | 157 W/m² | - |
| 1788182589 | 25° C | 96% | 1021.3 hPa | 0 mm | - | 115 W/m² | - |
| 1788182289 | 24.44° C | 98% | 1021.4 hPa | 0 mm | - | 49 W/m² | - |
| 1788181985 | 23.89° C | 99% | 1021.6 hPa | 0 mm | - | 46 W/m² | - |
| 1788181679 | 23.89° C | 99% | 1021.5 hPa | 0 mm | - | 42 W/m² | - |
| 1788181375 | 23.33° C | 99% | 1021.4 hPa | 0 mm | - | 46 W/m² | - |
| 1788181074 | 23.33° C | 99% | 1021.3 hPa | 0 mm | - | 39 W/m² | - |
| 1788180770 | 22.78° C | 99% | 1021.4 hPa | 0 mm | - | 38 W/m² | - |
| 1788180470 | 22.22° C | 99% | 1021.3 hPa | 0 mm | - | 36 W/m² | - |
| 1788180167 | 22.22° C | 99% | 1021.4 hPa | 0 mm | - | 35 W/m² | - |
| 1788179866 | 22.22° C | 99% | 1021.3 hPa | 0 mm | - | 33 W/m² | - |
| 1788179565 | 22.22° C | 99% | 1021.2 hPa | 0 mm | - | 32 W/m² | - |
| 1788179259 | 21.67° C | 99% | 1021.2 hPa | 0 mm | - | 31 W/m² | - |
| 1788178955 | 21.11° C | 99% | 1021 hPa | 0 mm | - | 28 W/m² | - |
| 1788178654 | 21.11° C | 99% | 1020.9 hPa | 0 mm | - | 26 W/m² | - |
| 1788178351 | 20.56° C | 99% | 1020.9 hPa | 0 mm | - | 24 W/m² | - |
| 1788178046 | 20.56° C | 99% | 1020.8 hPa | 0 mm | - | 23 W/m² | - |
| 1788177741 | 20.56° C | 99% | 1020.8 hPa | 0 mm | - | 19 W/m² | - |
* Rain latest hour (hover to see other rain measurements)
** Current wind speed in m/s (hover to see current wind gust speed)